| time (UTC) | temp C | wind direction | speed KPH | gust KPH | rain 1hr cm | rain 24hr cm | rain mn cm | humidity % | barometer mb |
| 20260831030512 | 22 | 190 | 0.0 | 0.0 | 0.00 | 0.03 | 0.03 | 99 | 1021.4 |
| 20260831030011 | 22 | 190 | 0.0 | 0.0 | 0.00 | 0.03 | 0.03 | 99 | 1021.3 |
| 20260831025509 | 22 | 190 | 0.0 | 0.0 | 0.00 | 0.03 | 0.03 | 99 | 1021.1 |
| 20260831025005 | 22 | 190 | 0.0 | 0.0 | 0.00 | 0.03 | 0.03 | 99 | 1021.1 |
| 20260831024500 | 22 | 190 | 0.0 | 0.0 | 0.00 | 0.03 | 0.03 | 99 | 1021.1 |
| 20260831024000 | 22 | 190 | 0.0 | 0.0 | 0.00 | 0.03 | 0.03 | 99 | 1021.3 |
| 20260831023458 | 22 | 190 | 0.0 | 0.0 | 0.00 | 0.03 | 0.03 | 99 | 1021.0 |
| 20260831022953 | 22 | 190 | 0.0 | 0.0 | 0.00 | 0.03 | 0.03 | 99 | 1021.0 |
| 20260831022452 | 22 | 190 | 0.0 | 0.0 | 0.00 | 0.03 | 0.03 | 99 | 1021.0 |
| 20260831021947 | 22 | 190 | 0.0 | 0.0 | 0.00 | 0.03 | 0.03 | 99 | 1021.2 |
| 20260831021446 | 22 | 190 | 0.0 | 0.0 | 0.00 | 0.03 | 0.03 | 99 | 1021.2 |
| 20260831020942 | 22 | 190 | 0.0 | 0.0 | 0.00 | 0.03 | 0.03 | 99 | 1021.1 |
| 20260831020442 | 22 | 190 | 0.0 | 0.0 | 0.00 | 0.03 | 0.03 | 98 | 1021.2 |
| 20260831015937 | 22 | 190 | 0.0 | 0.0 | 0.00 | 0.03 | 0.03 | 98 | 1021.1 |
| 20260831015434 | 22 | 190 | 0.0 | 0.0 | 0.00 | 0.03 | 0.03 | 98 | 1020.9 |
| 20260831014933 | 22 | 190 | 0.0 | 0.0 | 0.00 | 0.03 | 0.03 | 99 | 1021.0 |
| 20260831014428 | 22 | 190 | 0.0 | 0.0 | 0.00 | 0.03 | 0.03 | 99 | 1020.9 |
| 20260831013924 | 22 | 190 | 0.0 | 0.0 | 0.00 | 0.03 | 0.03 | 98 | 1020.9 |
| 20260831013419 | 22 | 190 | 0.0 | 0.0 | 0.00 | 0.03 | 0.03 | 99 | 1021.0 |
| 20260831012914 | 22 | 190 | 0.0 | 0.0 | 0.00 | 0.03 | 0.03 | 98 | 1020.9 |
| 20260831012409 | 22 | 190 | 0.0 | 0.0 | 0.00 | 0.03 | 0.03 | 98 | 1020.8 |
| 20260831011909 | 23 | 190 | 0.0 | 0.0 | 0.00 | 0.03 | 0.03 | 98 | 1020.8 |
| 20260831011404 | 23 | 190 | 0.0 | 0.0 | 0.00 | 0.03 | 0.03 | 98 | 1020.7 |
| 20260831010900 | 22 | 190 | 0.0 | 0.0 | 0.00 | 0.03 | 0.03 | 98 | 1020.7 |
| 20260831010359 | 23 | 190 | 0.0 | 0.0 | 0.00 | 0.03 | 0.03 | 98 | 1020.5 |
| 20260831005855 | 23 | 190 | 0.0 | 0.0 | 0.00 | 0.03 | 0.03 | 98 | 1020.7 |
| 20260831005350 | 23 | 190 | 0.0 | 0.0 | 0.00 | 0.03 | 0.03 | 98 | 1020.4 |
| 20260831004845 | 23 | 190 | 0.0 | 0.0 | 0.00 | 0.03 | 0.03 | 98 | 1020.3 |
| 20260831004341 | 23 | 190 | 0.0 | 0.0 | 0.00 | 0.03 | 0.03 | 98 | 1020.3 |
| 20260831003837 | 23 | 190 | 0.0 | 0.0 | 0.00 | 0.03 | 0.03 | 98 | 1020.4 |
| 20260831003333 | 23 | 190 | 0.0 | 0.0 | 0.00 | 0.03 | 0.03 | 97 | 1020.2 |
| 20260831002832 | 23 | 190 | 0.0 | 0.0 | 0.00 | 0.03 | 0.03 | 97 | 1020.2 |
| 20260831002331 | 23 | 190 | 0.0 | 0.0 | 0.00 | 0.03 | 0.03 | 97 | 1020.2 |
| 20260831001827 | 23 | 190 | 0.0 | 0.0 | 0.00 | 0.03 | 0.03 | 97 | 1020.1 |
| 20260831001322 | 23 | 190 | 0.0 | 0.0 | 0.00 | 0.03 | 0.03 | 97 | 1020.0 |
| 20260831000820 | 23 | 190 | 0.0 | 0.0 | 0.00 | 0.03 | 0.03 | 96 | 1020.1 |
| 20260831000320 | 23 | 190 | 0.0 | 0.0 | 0.00 | 0.03 | 0.03 | 97 | 1019.8 |
| 20260830235818 | 23 | 190 | 0.0 | 0.0 | 0.00 | 0.03 | 0.03 | 96 | 1019.8 |
| 20260830235313 | 24 | 190 | 0.0 | 0.0 | 0.00 | 0.03 | 0.03 | 95 | 1019.9 |
| 20260830234808 | 24 | 190 | 0.0 | 0.0 | 0.00 | 0.03 | 0.03 | 95 | 1019.8 |
| 20260830234304 | 25 | 190 | 0.0 | 0.0 | 0.00 | 0.03 | 0.03 | 94 | 1019.9 |
| 20260830233759 | 25 | 190 | 0.0 | 0.0 | 0.00 | 0.03 | 0.03 | 93 | 1019.8 |
| 20260830233255 | 25 | 190 | 0.0 | 0.0 | 0.00 | 0.03 | 0.03 | 92 | 1019.7 |
| 20260830232750 | 25 | 190 | 0.0 | 0.0 | 0.00 | 0.03 | 0.03 | 92 | 1019.8 |
| 20260830232246 | 25 | 190 | 0.0 | 0.0 | 0.00 | 0.03 | 0.03 | 92 | 1019.6 |
| 20260830231742 | 26 | 190 | 0.0 | 0.0 | 0.00 | 0.03 | 0.03 | 90 | 1019.6 |
| 20260830231242 | 26 | 191 | 0.0 | 0.0 | 0.00 | 0.03 | 0.03 | 88 | 1019.5 |
| 20260830230737 | 26 | 190 | 0.0 | 0.0 | 0.00 | 0.03 | 0.03 | 87 | 1019.6 |
| 20260830230232 | 25 | 166 | 0.0 | 0.0 | 0.00 | 0.03 | 0.03 | 87 | 1019.4 |
| 20260830225732 | 25 | 221 | 0.0 | 0.0 | 0.00 | 0.03 | 0.03 | 89 | 1019.4 |
| 20260830225227 | 26 | 221 | 0.0 | 0.0 | 0.00 | 0.03 | 0.03 | 91 | 1019.4 |
| 20260830224726 | 26 | 226 | 0.0 | 0.0 | 0.00 | 0.03 | 0.03 | 91 | 1019.5 |
| 20260830224221 | 26 | 256 | 0.0 | 0.0 | 0.00 | 0.03 | 0.03 | 90 | 1019.4 |
| 20260830223718 | 26 | 256 | 0.0 | 0.0 | 0.00 | 0.03 | 0.03 | 87 | 1019.5 |
| 20260830223214 | 26 | 244 | 0.0 | 0.0 | 0.00 | 0.03 | 0.03 | 87 | 1019.6 |
| 20260830222708 | 26 | 110 | 0.0 | 0.0 | 0.00 | 0.03 | 0.03 | 90 | 1019.5 |
| 20260830222203 | 26 | 109 | 0.0 | 0.0 | 0.00 | 0.03 | 0.03 | 86 | 1019.6 |
| 20260830221659 | 27 | 109 | 0.0 | 0.0 | 0.00 | 0.03 | 0.03 | 84 | 1019.4 |
| 20260830221155 | 27 | 181 | 0.0 | 0.0 | 0.00 | 0.03 | 0.03 | 84 | 1019.7 |
| 20260830220650 | 27 | 189 | 0.0 | 0.0 | 0.00 | 0.03 | 0.03 | 87 | 1019.5 |
| 20260830220149 | 27 | 212 | 0.0 | 0.0 | 0.00 | 0.03 | 0.03 | 82 | 1019.6 |
| 20260830215648 | 27 | 179 | 0.0 | 0.0 | 0.00 | 0.03 | 0.03 | 81 | 1019.6 |
| 20260830215143 | 28 | 178 | 0.0 | 0.0 | 0.00 | 0.03 | 0.03 | 79 | 1019.5 |
| 20260830214638 | 28 | 158 | 0.0 | 0.0 | 0.00 | 0.03 | 0.03 | 77 | 1019.8 |
| 20260830214133 | 28 | 277 | 0.0 | 0.0 | 0.00 | 0.03 | 0.03 | 78 | 1019.7 |
| 20260830213632 | 28 | 40 | 0.0 | 0.0 | 0.00 | 0.03 | 0.03 | 78 | 1019.7 |
| 20260830213128 | 28 | 159 | 0.0 | 0.0 | 0.00 | 0.03 | 0.03 | 77 | 1019.6 |
| 20260830212623 | 28 | 172 | 0.0 | 0.0 | 0.00 | 0.03 | 0.03 | 75 | 1019.8 |
| 20260830212118 | 28 | 190 | 0.0 | 0.0 | 0.00 | 0.03 | 0.03 | 76 | 1019.7 |
| 20260830211613 | 28 | 193 | 0.0 | 0.0 | 0.00 | 0.03 | 0.03 | 76 | 1019.8 |
| 20260830211108 | 28 | 190 | 0.0 | 0.0 | 0.00 | 0.03 | 0.03 | 76 | 1019.8 |
| 20260830210603 | 28 | 174 | 0.0 | 0.0 | 0.00 | 0.03 | 0.03 | 79 | 1019.8 |
| 20260830205559 | 27 | 170 | 0.0 | 0.0 | 0.00 | 0.03 | 0.03 | 76 | 1019.8 |
| 20260830205055 | 28 | 262 | 0.0 | 0.0 | 0.00 | 0.03 | 0.03 | 75 | 1019.9 |
| 20260830204554 | 28 | 130 | 0.0 | 0.0 | 0.00 | 0.03 | 0.03 | 78 | 1019.7 |
| 20260830204053 | 27 | 147 | 0.0 | 0.0 | 0.00 | 0.03 | 0.03 | 79 | 1019.9 |
| 20260830203550 | 27 | 198 | 0.0 | 0.0 | 0.00 | 0.03 | 0.03 | 77 | 1019.7 |
| 20260830203050 | 27 | 207 | 0.0 | 0.0 | 0.00 | 0.03 | 0.03 | 78 | 1019.9 |
| 20260830202550 | 27 | 237 | 0.0 | 0.0 | 0.00 | 0.03 | 0.03 | 77 | 1019.9 |
| 20260830202046 | 27 | 244 | 0.0 | 0.0 | 0.00 | 0.03 | 0.03 | 77 | 1020.1 |
| 20260830201545 | 27 | 167 | 0.0 | 0.0 | 0.00 | 0.03 | 0.03 | 78 | 1020.1 |
| 20260830201040 | 27 | 160 | 0.0 | 0.0 | 0.00 | 0.03 | 0.03 | 76 | 1020.1 |
| 20260830200536 | 27 | 115 | 0.0 | 0.0 | 0.00 | 0.03 | 0.03 | 77 | 1020.4 |
| 20260830200034 | 27 | 227 | 0.0 | 0.0 | 0.00 | 0.03 | 0.03 | 76 | 1020.4 |
| 20260830195530 | 27 | 148 | 0.0 | 0.0 | 0.00 | 0.03 | 0.03 | 75 | 1020.6 |
| 20260830195028 | 27 | 240 | 0.0 | 0.0 | 0.00 | 0.03 | 0.03 | 76 | 1020.7 |
| 20260830194528 | 26 | 155 | 0.0 | 0.0 | 0.00 | 0.03 | 0.03 | 79 | 1020.8 |
| 20260830194027 | 26 | 162 | 0.0 | 0.0 | 0.00 | 0.03 | 0.03 | 75 | 1021.0 |
| 20260830193527 | 26 | 337 | 0.0 | 0.0 | 0.00 | 0.03 | 0.03 | 79 | 1021.2 |
| 20260830193028 | 25 | 139 | 0.0 | 0.0 | 0.00 | 0.03 | 0.03 | 78 | 1020.9 |
| 20260830192523 | 25 | 176 | 0.0 | 0.0 | 0.00 | 0.03 | 0.03 | 81 | 1020.9 |
| 20260830192018 | 25 | 208 | 0.0 | 0.0 | 0.00 | 0.03 | 0.03 | 86 | 1020.7 |
| 20260830191514 | 23 | 249 | 0.0 | 0.0 | 0.00 | 0.03 | 0.03 | 82 | 1020.5 |
| 20260830191009 | 24 | 185 | 0.0 | 0.0 | 0.00 | 0.03 | 0.03 | 86 | 1020.7 |
| 20260830190504 | 25 | 257 | 0.0 | 0.0 | 0.00 | 0.03 | 0.03 | 83 | 1021.0 |
| 20260830190003 | 26 | 239 | 0.0 | 4.8 | 0.00 | 0.03 | 0.03 | 79 | 1021.4 |
| 20260830185458 | 26 | 306 | 0.0 | 3.2 | 0.00 | 0.03 | 0.03 | 84 | 1021.3 |
| 20260830184953 | 26 | 233 | 0.0 | 0.0 | 0.18 | 0.03 | 0.03 | 91 | 1020.8 |
| 20260830184452 | 28 | 247 | 0.0 | 0.0 | 0.00 | 0.00 | 0.00 | 80 | 1021.0 |
| 20260830183947 | 29 | 290 | 0.0 | 0.0 | 0.00 | 0.00 | 0.00 | 71 | 1020.8 |
| 20260830183442 | 30 | 244 | 0.0 | 0.0 | 0.00 | 0.00 | 0.00 | 66 | 1020.7 |
| 20260830182937 | 30 | 269 | 0.0 | 3.2 | 0.00 | 0.00 | 0.00 | 65 | 1021.0 |
| 20260830182433 | 31 | 180 | 0.0 | 0.0 | 0.00 | 0.00 | 0.00 | 64 | 1020.8 |
| 20260830181929 | 31 | 239 | 0.0 | 0.0 | 0.00 | 0.00 | 0.00 | 64 | 1020.8 |
| 20260830181424 | 31 | 347 | 0.0 | 0.0 | 0.00 | 0.00 | 0.00 | 64 | 1021.0 |
| 20260830180919 | 30 | 298 | 0.0 | 0.0 | 0.00 | 0.00 | 0.00 | 68 | 1021.1 |
| 20260830180418 | 30 | 251 | 0.0 | 0.0 | 0.00 | 0.00 | 0.00 | 69 | 1021.0 |
| 20260830175917 | 30 | 290 | 0.0 | 0.0 | 0.00 | 0.00 | 0.00 | 71 | 1021.0 |
| 20260830175411 | 30 | 305 | 0.0 | 0.0 | 0.00 | 0.00 | 0.00 | 70 | 1021.1 |
| 20260830174906 | 30 | 306 | 0.0 | 0.0 | 0.00 | 0.00 | 0.00 | 71 | 1021.2 |
| 20260830174402 | 29 | 324 | 0.0 | 0.0 | 0.00 | 0.00 | 0.00 | 74 | 1021.6 |
| 20260830173857 | 28 | 246 | 0.0 | 0.0 | 0.00 | 0.00 | 0.00 | 74 | 1021.6 |
| 20260830173352 | 28 | 294 | 0.0 | 0.0 | 0.00 | 0.00 | 0.00 | 75 | 1021.5 |
| 20260830172848 | 28 | 247 | 0.0 | 0.0 | 0.00 | 0.00 | 0.00 | 72 | 1022.0 |
| 20260830172344 | 30 | 301 | 0.0 | 0.0 | 0.00 | 0.00 | 0.00 | 73 | 1021.8 |
| 20260830171839 | 30 | 304 | 0.0 | 1.6 | 0.00 | 0.00 | 0.00 | 70 | 1021.8 |
| 20260830171335 | 29 | 311 | 0.0 | 1.6 | 0.00 | 0.00 | 0.00 | 72 | 1021.8 |
| 20260830170830 | 29 | 249 | 0.0 | 0.0 | 0.00 | 0.00 | 0.00 | 72 | 1022.0 |
| 20260830170329 | 28 | 305 | 0.0 | 0.0 | 0.00 | 0.00 | 0.00 | 70 | 1022.0 |
| 20260830165823 | 29 | 232 | 0.0 | 3.2 | 0.00 | 0.00 | 0.00 | 71 | 1022.3 |
| 20260830165319 | 28 | 250 | 0.0 | 0.0 | 0.00 | 0.00 | 0.00 | 74 | 1022.2 |
| 20260830164815 | 29 | 312 | 0.0 | 0.0 | 0.00 | 0.00 | 0.00 | 72 | 1022.1 |
| 20260830164311 | 29 | 250 | 0.0 | 0.0 | 0.00 | 0.00 | 0.00 | 73 | 1022.2 |
| 20260830163808 | 29 | 250 | 0.0 | 1.6 | 0.00 | 0.00 | 0.00 | 70 | 1022.1 |
| 20260830163303 | 28 | 260 | 0.0 | 0.0 | 0.00 | 0.00 | 0.00 | 72 | 1022.2 |
| 20260830162757 | 28 | 241 | 0.0 | 0.0 | 0.00 | 0.00 | 0.00 | 73 | 1022.1 |
| 20260830162254 | 28 | 297 | 0.0 | 0.0 | 0.00 | 0.00 | 0.00 | 72 | 1022.2 |
| 20260830161749 | 28 | 357 | 0.0 | 0.0 | 0.00 | 0.00 | 0.00 | 73 | 1022.2 |
| 20260830161248 | 28 | 229 | 0.0 | 0.0 | 0.00 | 0.00 | 0.00 | 74 | 1022.2 |
| 20260830160744 | 28 | 303 | 0.0 | 0.0 | 0.00 | 0.00 | 0.00 | 75 | 1022.3 |
| 20260830160243 | 27 | 257 | 0.0 | 0.0 | 0.00 | 0.00 | 0.00 | 76 | 1022.2 |
| 20260830155740 | 28 | 327 | 0.0 | 0.0 | 0.00 | 0.00 | 0.00 | 74 | 1022.3 |
| 20260830155236 | 27 | 173 | 0.0 | 0.0 | 0.00 | 0.00 | 0.00 | 75 | 1022.3 |
| 20260830154735 | 27 | 271 | 0.0 | 0.0 | 0.00 | 0.00 | 0.00 | 77 | 1022.3 |
| 20260830154231 | 27 | 301 | 0.0 | 0.0 | 0.00 | 0.00 | 0.00 | 76 | 1022.2 |
| 20260830153728 | 27 | 240 | 0.0 | 0.0 | 0.00 | 0.00 | 0.00 | 76 | 1022.3 |
| 20260830153228 | 27 | 243 | 0.0 | 0.0 | 0.00 | 0.00 | 0.00 | 76 | 1022.3 |
| 20260830152727 | 27 | 255 | 0.0 | 0.0 | 0.00 | 0.00 | 0.00 | 77 | 1022.4 |
| 20260830152222 | 27 | 308 | 0.0 | 0.0 | 0.00 | 0.00 | 0.00 | 77 | 1022.3 |
| 20260830151716 | 27 | 297 | 0.0 | 0.0 | 0.00 | 0.00 | 0.00 | 78 | 1022.2 |
| 20260830151215 | 26 | 233 | 0.0 | 0.0 | 0.00 | 0.00 | 0.00 | 79 | 1022.3 |
| 20260830150711 | 26 | 170 | 0.0 | 0.0 | 0.00 | 0.00 | 0.00 | 79 | 1022.1 |
| 20260830150206 | 26 | 241 | 0.0 | 0.0 | 0.00 | 0.00 | 0.00 | 79 | 1022.2 |
| 20260830145706 | 25 | 164 | 0.0 | 0.0 | 0.00 | 0.00 | 0.00 | 80 | 1022.1 |
| 20260830145200 | 25 | 172 | 0.0 | 0.0 | 0.00 | 0.00 | 0.00 | 81 | 1022.5 |
| 20260830144655 | 25 | 268 | 0.0 | 0.0 | 0.00 | 0.00 | 0.00 | 80 | 1022.3 |
| 20260830144151 | 25 | 268 | 0.0 | 0.0 | 0.00 | 0.00 | 0.00 | 80 | 1022.2 |
| 20260830143642 | 25 | 241 | 0.0 | 0.0 | 0.00 | 0.00 | 0.00 | 82 | 1022.3 |
| 20260830143139 | 25 | 263 | 0.0 | 0.0 | 0.00 | 0.00 | 0.00 | 80 | 1022.3 |
| 20260830142635 | 25 | 281 | 0.0 | 0.0 | 0.00 | 0.00 | 0.00 | 80 | 1022.2 |
| 20260830142130 | 25 | 265 | 0.0 | 0.0 | 0.00 | 0.00 | 0.00 | 80 | 1022.0 |
| 20260830141625 | 25 | 253 | 0.0 | 0.0 | 0.00 | 0.00 | 0.00 | 79 | 1022.2 |
| 20260830141120 | 26 | 132 | 0.0 | 0.0 | 0.00 | 0.00 | 0.00 | 80 | 1022.1 |
| 20260830140615 | 25 | 155 | 0.0 | 0.0 | 0.00 | 0.00 | 0.00 | 84 | 1021.8 |
| 20260830140115 | 25 | 155 | 0.0 | 0.0 | 0.00 | 0.00 | 0.00 | 85 | 1022.1 |
| 20260830135615 | 25 | 155 | 0.0 | 0.0 | 0.00 | 0.00 | 0.00 | 84 | 1021.9 |
| 20260830135110 | 25 | 155 | 0.0 | 0.0 | 0.00 | 0.00 | 0.00 | 87 | 1021.9 |
| 20260830134606 | 24 | 155 | 0.0 | 0.0 | 0.00 | 0.00 | 0.00 | 87 | 1022.1 |
| 20260830134101 | 23 | 155 | 0.0 | 0.0 | 0.00 | 0.00 | 0.00 | 90 | 1022.0 |
| 20260830133557 | 23 | 155 | 0.0 | 0.0 | 0.00 | 0.00 | 0.00 | 92 | 1022.1 |
| 20260830133051 | 22 | 155 | 0.0 | 0.0 | 0.00 | 0.00 | 0.00 | 90 | 1022.2 |
| 20260830132548 | 22 | 155 | 0.0 | 0.0 | 0.00 | 0.00 | 0.00 | 91 | 1021.9 |
| 20260830132043 | 22 | 155 | 0.0 | 0.0 | 0.00 | 0.00 | 0.00 | 94 | 1022.0 |
| 20260830131542 | 21 | 155 | 0.0 | 0.0 | 0.00 | 0.00 | 0.00 | 95 | 1022.1 |
| 20260830131036 | 21 | 155 | 0.0 | 0.0 | 0.00 | 0.00 | 0.00 | 96 | 1022.1 |
| 20260830130532 | 21 | 155 | 0.0 | 0.0 | 0.00 | 0.00 | 0.00 | 96 | 1022.3 |
| 20260830130027 | 21 | 155 | 0.0 | 0.0 | 0.00 | 0.00 | 0.00 | 96 | 1022.3 |
| 20260830125521 | 20 | 155 | 0.0 | 0.0 | 0.00 | 0.00 | 0.00 | 96 | 1022.2 |
| 20260830125020 | 20 | 153 | 0.0 | 0.0 | 0.00 | 0.00 | 0.00 | 97 | 1022.1 |
| 20260830124514 | 20 | 153 | 0.0 | 0.0 | 0.00 | 0.00 | 0.00 | 97 | 1022.1 |
| 20260830124010 | 19 | 153 | 0.0 | 0.0 | 0.00 | 0.00 | 0.00 | 98 | 1022.2 |
| 20260830123508 | 19 | 153 | 0.0 | 0.0 | 0.00 | 0.00 | 0.00 | 98 | 1022.1 |
| 20260830123007 | 18 | 153 | 0.0 | 0.0 | 0.00 | 0.00 | 0.00 | 98 | 1022.0 |
| 20260830122504 | 18 | 153 | 0.0 | 0.0 | 0.00 | 0.00 | 0.00 | 99 | 1021.9 |
| 20260830121959 | 18 | 153 | 0.0 | 0.0 | 0.00 | 0.00 | 0.00 | 99 | 1022.0 |
| 20260830121455 | 18 | 153 | 0.0 | 0.0 | 0.00 | 0.00 | 0.00 | 99 | 1021.9 |
| 20260830120954 | 18 | 153 | 0.0 | 0.0 | 0.00 | 0.00 | 0.00 | 99 | 1022.1 |
| 20260830120450 | 17 | 153 | 0.0 | 0.0 | 0.00 | 0.00 | 0.00 | 99 | 1022.3 |
| 20260830115947 | 17 | 153 | 0.0 | 0.0 | 0.00 | 0.00 | 0.00 | 99 | 1022.1 |
| 20260830115442 | 17 | 153 | 0.0 | 0.0 | 0.00 | 0.00 | 0.00 | 99 | 1021.9 |
| 20260830114938 | 17 | 153 | 0.0 | 0.0 | 0.00 | 0.00 | 0.00 | 99 | 1021.9 |
| 20260830114434 | 17 | 153 | 0.0 | 0.0 | 0.00 | 0.00 | 0.00 | 99 | 1022.1 |
| 20260830113934 | 17 | 153 | 0.0 | 0.0 | 0.00 | 0.00 | 0.00 | 99 | 1021.9 |
| 20260830113429 | 17 | 153 | 0.0 | 0.0 | 0.00 | 0.00 | 0.00 | 99 | 1021.9 |
| 20260830112925 | 17 | 153 | 0.0 | 0.0 | 0.00 | 0.00 | 0.00 | 99 | 1022.2 |
| 20260830112420 | 17 | 153 | 0.0 | 0.0 | 0.00 | 0.00 | 0.00 | 99 | 1021.9 |
| 20260830111916 | 17 | 153 | 0.0 | 0.0 | 0.00 | 0.00 | 0.00 | 99 | 1022.0 |
| 20260830111412 | 17 | 153 | 0.0 | 0.0 | 0.00 | 0.00 | 0.00 | 99 | 1022.0 |
| 20260830110907 | 17 | 153 | 0.0 | 0.0 | 0.00 | 0.00 | 0.00 | 99 | 1022.0 |
| 20260830110403 | 17 | 153 | 0.0 | 0.0 | 0.00 | 0.00 | 0.00 | 99 | 1021.8 |
| 20260830105901 | 17 | 153 | 0.0 | 0.0 | 0.00 | 0.00 | 0.00 | 99 | 1021.8 |
| 20260830105359 | 17 | 153 | 0.0 | 0.0 | 0.00 | 0.00 | 0.00 | 99 | 1021.7 |
| 20260830104854 | 17 | 153 | 0.0 | 0.0 | 0.00 | 0.00 | 0.00 | 99 | 1021.9 |
| 20260830104351 | 17 | 153 | 0.0 | 0.0 | 0.00 | 0.00 | 0.00 | 99 | 1021.8 |
| 20260830103850 | 17 | 153 | 0.0 | 0.0 | 0.00 | 0.00 | 0.00 | 99 | 1021.8 |
| 20260830103346 | 17 | 153 | 0.0 | 0.0 | 0.00 | 0.00 | 0.00 | 99 | 1021.7 |
| 20260830102843 | 17 | 153 | 0.0 | 0.0 | 0.00 | 0.00 | 0.00 | 99 | 1021.8 |
| 20260830102340 | 17 | 153 | 0.0 | 0.0 | 0.00 | 0.00 | 0.00 | 99 | 1021.8 |
| 20260830101836 | 17 | 153 | 0.0 | 0.0 | 0.00 | 0.00 | 0.00 | 99 | 1021.9 |
| 20260830101331 | 17 | 153 | 0.0 | 0.0 | 0.00 | 0.00 | 0.00 | 99 | 1021.8 |
| 20260830100830 | 17 | 153 | 0.0 | 0.0 | 0.00 | 0.00 | 0.00 | 99 | 1021.7 |
| 20260830100324 | 17 | 153 | 0.0 | 0.0 | 0.00 | 0.00 | 0.00 | 99 | 1021.8 |
| 20260830095823 | 17 | 153 | 0.0 | 0.0 | 0.00 | 0.00 | 0.00 | 99 | 1021.8 |
| 20260830095320 | 17 | 153 | 0.0 | 0.0 | 0.00 | 0.00 | 0.00 | 99 | 1021.7 |
| 20260830094815 | 17 | 153 | 0.0 | 0.0 | 0.00 | 0.00 | 0.00 | 99 | 1021.9 |
| 20260830094312 | 17 | 153 | 0.0 | 0.0 | 0.00 | 0.00 | 0.00 | 99 | 1021.9 |
| 20260830093807 | 17 | 153 | 0.0 | 0.0 | 0.00 | 0.00 | 0.00 | 99 | 1021.7 |
| 20260830093302 | 17 | 153 | 0.0 | 0.0 | 0.00 | 0.00 | 0.00 | 99 | 1021.6 |
| 20260830092802 | 17 | 153 | 0.0 | 0.0 | 0.00 | 0.00 | 0.00 | 99 | 1021.7 |
| 20260830092259 | 17 | 153 | 0.0 | 0.0 | 0.00 | 0.00 | 0.00 | 99 | 1021.7 |
| 20260830091755 | 17 | 153 | 0.0 | 0.0 | 0.00 | 0.00 | 0.00 | 99 | 1021.8 |
| 20260830091254 | 17 | 153 | 0.0 | 0.0 | 0.00 | 0.00 | 0.00 | 99 | 1021.8 |
| 20260830090753 | 17 | 153 | 0.0 | 0.0 | 0.00 | 0.00 | 0.00 | 99 | 1021.8 |
| 20260830090249 | 17 | 153 | 0.0 | 0.0 | 0.00 | 0.00 | 0.00 | 99 | 1021.5 |
| 20260830085748 | 17 | 153 | 0.0 | 0.0 | 0.00 | 0.00 | 0.00 | 99 | 1021.5 |
| 20260830085244 | 17 | 153 | 0.0 | 0.0 | 0.00 | 0.00 | 0.00 | 99 | 1021.7 |
| 20260830084739 | 17 | 153 | 0.0 | 0.0 | 0.00 | 0.00 | 0.00 | 99 | 1021.7 |
| 20260830084235 | 17 | 153 | 0.0 | 0.0 | 0.00 | 0.00 | 0.00 | 99 | 1021.5 |
| 20260830083730 | 17 | 153 | 0.0 | 0.0 | 0.00 | 0.00 | 0.00 | 99 | 1021.7 |
| 20260830083226 | 17 | 153 | 0.0 | 0.0 | 0.00 | 0.00 | 0.00 | 99 | 1021.7 |
| 20260830082726 | 17 | 153 | 0.0 | 0.0 | 0.00 | 0.00 | 0.00 | 99 | 1021.7 |
| 20260830082221 | 17 | 153 | 0.0 | 0.0 | 0.00 | 0.00 | 0.00 | 99 | 1021.8 |
| 20260830081716 | 17 | 153 | 0.0 | 0.0 | 0.00 | 0.00 | 0.00 | 99 | 1021.5 |
| 20260830081215 | 17 | 153 | 0.0 | 0.0 | 0.00 | 0.00 | 0.00 | 99 | 1021.6 |
| 20260830080709 | 17 | 153 | 0.0 | 0.0 | 0.00 | 0.00 | 0.00 | 99 | 1021.8 |
| 20260830080206 | 17 | 153 | 0.0 | 0.0 | 0.00 | 0.00 | 0.00 | 99 | 1021.9 |
| 20260830075704 | 17 | 153 | 0.0 | 0.0 | 0.00 | 0.00 | 0.00 | 99 | 1021.7 |
| 20260830075201 | 17 | 153 | 0.0 | 0.0 | 0.00 | 0.00 | 0.00 | 99 | 1021.7 |
| 20260830074656 | 17 | 153 | 0.0 | 0.0 | 0.00 | 0.00 | 0.00 | 99 | 1021.6 |
| 20260830074152 | 17 | 153 | 0.0 | 0.0 | 0.00 | 0.00 | 0.00 | 99 | 1021.7 |
| 20260830073648 | 17 | 153 | 0.0 | 0.0 | 0.00 | 0.00 | 0.00 | 99 | 1021.7 |
| 20260830073143 | 17 | 153 | 0.0 | 0.0 | 0.00 | 0.00 | 0.00 | 99 | 1021.6 |
| 20260830072638 | 17 | 153 | 0.0 | 0.0 | 0.00 | 0.00 | 0.00 | 99 | 1021.6 |
| 20260830072138 | 18 | 153 | 0.0 | 0.0 | 0.00 | 0.00 | 0.00 | 99 | 1021.7 |
| 20260830071633 | 18 | 153 | 0.0 | 0.0 | 0.00 | 0.00 | 0.00 | 99 | 1021.6 |
| 20260830071131 | 18 | 153 | 0.0 | 0.0 | 0.00 | 0.00 | 0.00 | 99 | 1021.7 |
| 20260830070626 | 18 | 153 | 0.0 | 0.0 | 0.00 | 0.00 | 0.00 | 99 | 1021.7 |
| 20260830070122 | 18 | 153 | 0.0 | 0.0 | 0.00 | 0.00 | 0.00 | 99 | 1021.7 |
| 20260830065620 | 18 | 153 | 0.0 | 0.0 | 0.00 | 0.00 | 0.00 | 99 | 1021.6 |
| 20260830065119 | 18 | 153 | 0.0 | 0.0 | 0.00 | 0.00 | 0.00 | 99 | 1021.6 |
| 20260830064613 | 18 | 153 | 0.0 | 0.0 | 0.00 | 0.00 | 0.00 | 99 | 1021.6 |
| 20260830064109 | 18 | 153 | 0.0 | 0.0 | 0.00 | 0.00 | 0.00 | 99 | 1021.6 |
| 20260830063603 | 18 | 153 | 0.0 | 0.0 | 0.00 | 0.00 | 0.00 | 99 | 1021.9 |
| 20260830063102 | 18 | 153 | 0.0 | 0.0 | 0.00 | 0.00 | 0.00 | 99 | 1021.6 |
| 20260830062556 | 18 | 153 | 0.0 | 0.0 | 0.00 | 0.00 | 0.00 | 99 | 1021.8 |
| 20260830062051 | 18 | 153 | 0.0 | 0.0 | 0.00 | 0.00 | 0.00 | 99 | 1021.8 |
| 20260830061545 | 18 | 153 | 0.0 | 0.0 | 0.00 | 0.00 | 0.00 | 99 | 1021.8 |
| 20260830061042 | 18 | 153 | 0.0 | 0.0 | 0.00 | 0.00 | 0.00 | 99 | 1021.7 |
| 20260830060538 | 18 | 153 | 0.0 | 0.0 | 0.00 | 0.00 | 0.00 | 99 | 1021.8 |
| 20260830060035 | 18 | 153 | 0.0 | 0.0 | 0.00 | 0.00 | 0.00 | 99 | 1021.8 |
| 20260830055530 | 18 | 153 | 0.0 | 0.0 | 0.00 | 0.00 | 0.00 | 99 | 1021.9 |
| 20260830055026 | 18 | 153 | 0.0 | 0.0 | 0.00 | 0.00 | 0.00 | 99 | 1022.0 |
| 20260830054521 | 18 | 153 | 0.0 | 0.0 | 0.00 | 0.00 | 0.00 | 99 | 1022.0 |
| 20260830054016 | 18 | 153 | 0.0 | 0.0 | 0.00 | 0.00 | 0.00 | 99 | 1021.9 |
| 20260830053512 | 18 | 153 | 0.0 | 0.0 | 0.00 | 0.00 | 0.00 | 99 | 1021.9 |
| 20260830053011 | 18 | 153 | 0.0 | 0.0 | 0.00 | 0.00 | 0.00 | 99 | 1021.9 |
| 20260830052507 | 18 | 153 | 0.0 | 0.0 | 0.00 | 0.00 | 0.00 | 99 | 1021.9 |
| 20260830052007 | 18 | 153 | 0.0 | 0.0 | 0.00 | 0.00 | 0.00 | 99 | 1022.2 |
| 20260830051502 | 18 | 153 | 0.0 | 0.0 | 0.00 | 0.00 | 0.00 | 99 | 1022.0 |
| 20260830050956 | 18 | 153 | 0.0 | 0.0 | 0.00 | 0.00 | 0.00 | 99 | 1022.0 |
| 20260830050451 | 18 | 153 | 0.0 | 0.0 | 0.00 | 0.00 | 0.00 | 99 | 1022.0 |
| 20260830045949 | 18 | 153 | 0.0 | 0.0 | 0.00 | 0.00 | 0.00 | 99 | 1022.0 |
| 20260830045444 | 18 | 153 | 0.0 | 0.0 | 0.00 | 0.00 | 0.00 | 99 | 1021.8 |
| 20260830044943 | 18 | 153 | 0.0 | 0.0 | 0.00 | 0.00 | 0.00 | 99 | 1021.8 |
| 20260830044439 | 18 | 153 | 0.0 | 0.0 | 0.00 | 0.00 | 0.00 | 99 | 1021.8 |
| 20260830043934 | 18 | 153 | 0.0 | 0.0 | 0.00 | 0.00 | 0.00 | 99 | 1021.8 |
| 20260830043435 | 18 | 153 | 0.0 | 0.0 | 0.00 | 0.00 | 0.00 | 99 | 1021.9 |
| 20260830042932 | 18 | 153 | 0.0 | 0.0 | 0.00 | 0.00 | 0.00 | 99 | 1021.8 |
| 20260830042427 | 18 | 153 | 0.0 | 0.0 | 0.00 | 0.00 | 0.00 | 99 | 1021.8 |
| 20260830041926 | 18 | 153 | 0.0 | 0.0 | 0.00 | 0.00 | 0.00 | 99 | 1021.9 |
| 20260830041425 | 18 | 153 | 0.0 | 0.0 | 0.00 | 0.00 | 0.00 | 99 | 1021.6 |
| 20260830040920 | 18 | 153 | 0.0 | 0.0 | 0.00 | 0.00 | 0.00 | 99 | 1021.8 |
| 20260830040416 | 18 | 153 | 0.0 | 0.0 | 0.00 | 0.00 | 0.00 | 99 | 1022.0 |
| 20260830035915 | 19 | 153 | 0.0 | 0.0 | 0.00 | 0.00 | 0.00 | 99 | 1021.9 |
| 20260830035414 | 19 | 153 | 0.0 | 0.0 | 0.00 | 0.00 | 0.00 | 99 | 1022.1 |
| 20260830034910 | 19 | 153 | 0.0 | 0.0 | 0.00 | 0.00 | 0.00 | 99 | 1021.9 |
| 20260830034406 | 19 | 153 | 0.0 | 0.0 | 0.00 | 0.00 | 0.00 | 99 | 1022.0 |
| 20260830033901 | 19 | 153 | 0.0 | 0.0 | 0.00 | 0.00 | 0.00 | 99 | 1022.0 |
| 20260830033355 | 19 | 153 | 0.0 | 0.0 | 0.00 | 0.00 | 0.00 | 99 | 1022.1 |
| 20260830032851 | 19 | 153 | 0.0 | 0.0 | 0.00 | 0.00 | 0.00 | 99 | 1021.8 |
| 20260830032350 | 19 | 153 | 0.0 | 0.0 | 0.00 | 0.00 | 0.00 | 99 | 1021.9 |
| 20260830031845 | 19 | 153 | 0.0 | 0.0 | 0.00 | 0.00 | 0.00 | 99 | 1021.8 |
| 20260830031341 | 19 | 153 | 0.0 | 0.0 | 0.00 | 0.00 | 0.00 | 98 | 1021.8 |